When you browse on this site, cookies collect data to enhance your experience and personalize the content and advertising you see.
Visit our Privacy Policy to learn more. By continuing to use the site, you agree to this use of cookies and data.
  • In Netherlands
  • List of Countries
  • For 7 days
  • Water Temperature
  • Weather Map
  • Weather Widgets
  • user-avatar
    Login

    Hourly Weather Trowbridge

    Today, 24 August, Saturday

    Time Temperature Precipitation Wind Pressure Humidity
    00:00 +15°C° 0 mm 1 mps 761 mmHg 73%
    01:00 +15°C° 0 mm 1 mps 761 mmHg 72%
    02:00 +14°C° 0 mm 1 mps 761 mmHg 71%
    03:00 +14°C° 0 mm 1 mps 761 mmHg 70%
    04:00 +14°C° 0 mm 1 mps 760 mmHg 71%
    05:00 +14°C° 0 mm 1 mps 760 mmHg 71%
    06:00 +15°C° 0 mm 1 mps 760 mmHg 72%
    07:00 +17°C° 0 mm 2 mps 760 mmHg 70%
    08:00 +19°C° 0 mm 2 mps 760 mmHg 67%
    09:00 +21°C° 0 mm 3 mps 760 mmHg 64%
    10:00 +24°C° 0 mm 3 mps 760 mmHg 61%
    11:00 +25°C° 0 mm 4 mps 760 mmHg 57%
    12:00 +27°C° 0 mm 4 mps 759 mmHg 53%
    13:00 +27°C° 0 mm 4 mps 759 mmHg 52%
    14:00 +27°C° 0 mm 4 mps 759 mmHg 51%
    15:00 +28°C° 0 mm 5 mps 759 mmHg 50%
    16:00 +26°C° 0 mm 4 mps 759 mmHg 56%
    17:00 +25°C° 0 mm 3 mps 758 mmHg 62%
    18:00 +24°C° 0 mm 3 mps 758 mmHg 67%
    19:00 +21°C° 0 mm 3 mps 758 mmHg 70%
    20:00 +20°C° 0 mm 2 mps 758 mmHg 73%
    21:00 +18°C° 0 mm 2 mps 758 mmHg 75%
    22:00 +18°C° 0 mm 2 mps 758 mmHg 75%
    23:00 +18°C° 0 mm 2 mps 758 mmHg 74%

    Tomorrow, 25 August, Sunday

    Time Temperature Precipitation Wind Pressure Humidity
    00:00 +18°C° 0 mm 2 mps 758 mmHg 73%
    01:00 +17°C° 0 mm 2 mps 758 mmHg 75%
    02:00 +17°C° 0 mm 2 mps 758 mmHg 76%
    03:00 +17°C° 0 mm 2 mps 758 mmHg 78%
    04:00 +17°C° 0 mm 2 mps 758 mmHg 78%
    05:00 +17°C° 0 mm 2 mps 758 mmHg 79%
    06:00 +17°C° 0 mm 2 mps 758 mmHg 79%
    07:00 +20°C° 0 mm 2 mps 758 mmHg 74%
    08:00 +22°C° 0 mm 3 mps 758 mmHg 69%
    09:00 +25°C° 0 mm 3 mps 758 mmHg 63%
    10:00 +26°C° 0 mm 3 mps 759 mmHg 59%
    11:00 +27°C° 0 mm 3 mps 759 mmHg 54%
    12:00 +29°C° 0 mm 4 mps 759 mmHg 49%
    13:00 +29°C° 0 mm 4 mps 759 mmHg 49%
    14:00 +29°C° 0 mm 4 mps 759 mmHg 49%
    15:00 +29°C° 0 mm 4 mps 758 mmHg 49%
    16:00 +27°C° 0 mm 3 mps 759 mmHg 56%
    17:00 +26°C° 0 mm 3 mps 759 mmHg 63%
    18:00 +24°C° 0 mm 2 mps 759 mmHg 71%
    19:00 +23°C° 0 mm 2 mps 759 mmHg 77%
    20:00 +20°C° 0 mm 2 mps 759 mmHg 82%
    21:00 +19°C° 0 mm 1 mps 760 mmHg 88%
    22:00 +18°C° 0 mm 1 mps 760 mmHg 89%
    23:00 +18°C° 0 mm 1 mps 760 mmHg 89%

    Day after tomorrow, 26 August, Monday

    Time Temperature Precipitation Wind Pressure Humidity
    00:00 +16°C° 0 mm 1 mps 760 mmHg 90%
    01:00 +16°C° 0 mm 1 mps 759 mmHg 89%
    02:00 +15°C° 0 mm 0 mps 759 mmHg 88%
    03:00 +14°C° 0 mm 0 mps 759 mmHg 88%
    04:00 +14°C° 0 mm 0 mps 759 mmHg 87%
    05:00 +15°C° 0 mm 0 mps 759 mmHg 86%
    06:00 +15°C° 0 mm 0 mps 759 mmHg 85%
    07:00 +17°C° 0 mm 0 mps 759 mmHg 78%
    08:00 +19°C° 0 mm 0 mps 759 mmHg 71%
    09:00 +23°C° 0 mm 1 mps 759 mmHg 64%
    10:00 +25°C° 0 mm 1 mps 759 mmHg 59%
    11:00 +26°C° 0 mm 1 mps 759 mmHg 55%
    12:00 +28°C° 0 mm 1 mps 759 mmHg 51%
    13:00 +28°C° 0 mm 1 mps 759 mmHg 50%
    14:00 +29°C° 0 mm 1 mps 759 mmHg 50%
    15:00 +29°C° 0 mm 2 mps 758 mmHg 49%
    16:00 +28°C° 0 mm 2 mps 758 mmHg 56%
    17:00 +26°C° 0 mm 2 mps 758 mmHg 63%
    18:00 +25°C° 0 mm 2 mps 758 mmHg 70%
    19:00 +23°C° 0 mm 1 mps 758 mmHg 74%
    20:00 +21°C° 0 mm 1 mps 758 mmHg 77%
    21:00 +20°C° 0 mm 1 mps 758 mmHg 81%
    22:00 +20°C° 0 mm 1 mps 758 mmHg 81%
    23:00 +19°C° 0 mm 1 mps 758 mmHg 81%

    27 August, Tuesday

    Time Temperature Precipitation Wind Pressure Humidity
    00:00 +19°C° 0 mm 1 mps 757 mmHg 81%
    01:00 +19°C° 0.1 mm 1 mps 757 mmHg 83%
    02:00 +19°C° 0.1 mm 1 mps 757 mmHg 84%
    03:00 +18°C° 0.1 mm 1 mps 757 mmHg 85%
    04:00 +18°C° 0.3 mm 1 mps 757 mmHg 86%
    05:00 +18°C° 0.3 mm 1 mps 757 mmHg 87%
    06:00 +18°C° 0.3 mm 1 mps 757 mmHg 87%
    07:00 +20°C° 0.3 mm 1 mps 757 mmHg 85%
    08:00 +20°C° 0.3 mm 2 mps 757 mmHg 82%
    09:00 +21°C° 0.3 mm 2 mps 757 mmHg 80%
    10:00 +23°C° 0.1 mm 2 mps 757 mmHg 76%
    11:00 +24°C° 0.1 mm 2 mps 757 mmHg 72%
    12:00 +25°C° 0.1 mm 2 mps 757 mmHg 67%
    13:00 +25°C° 0 mm 3 mps 757 mmHg 67%
    14:00 +25°C° 0 mm 3 mps 757 mmHg 66%
    15:00 +25°C° 0 mm 3 mps 757 mmHg 65%
    16:00 +24°C° 0 mm 3 mps 757 mmHg 69%
    17:00 +21°C° 0 mm 3 mps 757 mmHg 73%
    18:00 +20°C° 0 mm 3 mps 757 mmHg 77%
    19:00 +19°C° 0 mm 3 mps 757 mmHg 79%
    20:00 +18°C° 0 mm 3 mps 757 mmHg 81%
    21:00 +17°C° 0 mm 2 mps 757 mmHg 83%
    22:00 +17°C° 0 mm 2 mps 757 mmHg 84%
    23:00 +17°C° 0 mm 2 mps 758 mmHg 85%

    28 August, Wednesday

    Time Temperature Precipitation Wind Pressure Humidity
    00:00 +16°C° 0 mm 2 mps 758 mmHg 86%
    01:00 +16°C° 0 mm 2 mps 757 mmHg 84%
    02:00 +16°C° 0 mm 2 mps 757 mmHg 82%
    03:00 +17°C° 0 mm 2 mps 757 mmHg 81%
    04:00 +16°C° 0 mm 2 mps 757 mmHg 82%
    05:00 +16°C° 0 mm 2 mps 757 mmHg 83%
    06:00 +16°C° 0 mm 1 mps 757 mmHg 83%
    07:00 +18°C° 0 mm 2 mps 758 mmHg 78%
    08:00 +19°C° 0 mm 2 mps 758 mmHg 72%
    09:00 +20°C° 0 mm 2 mps 758 mmHg 66%
    10:00 +20°C° 0 mm 3 mps 758 mmHg 66%
    11:00 +21°C° 0 mm 4 mps 758 mmHg 67%
    12:00 +21°C° 0 mm 5 mps 758 mmHg 67%
    13:00 +19°C° 0.9 mm 4 mps 758 mmHg 74%
    14:00 +18°C° 0.9 mm 3 mps 758 mmHg 80%
    15:00 +17°C° 0.9 mm 2 mps 758 mmHg 87%
    16:00 +17°C° 0 mm 2 mps 758 mmHg 85%
    17:00 +18°C° 0 mm 2 mps 758 mmHg 84%
    18:00 +19°C° 0 mm 2 mps 758 mmHg 82%
    19:00 +18°C° 0 mm 2 mps 758 mmHg 85%
    20:00 +17°C° 0 mm 2 mps 758 mmHg 89%
    21:00 +16°C° 0 mm 1 mps 758 mmHg 93%
    22:00 +16°C° 0 mm 1 mps 758 mmHg 93%
    23:00 +15°C° 0 mm 1 mps 758 mmHg 94%

    29 August, Thursday

    Time Temperature Precipitation Wind Pressure Humidity
    00:00 +15°C° 0 mm 1 mps 758 mmHg 95%
    01:00 +15°C° 0 mm 1 mps 758 mmHg 94%
    02:00 +15°C° 0 mm 1 mps 758 mmHg 94%
    03:00 +15°C° 0 mm 1 mps 758 mmHg 94%
    04:00 +15°C° 0.1 mm 1 mps 758 mmHg 94%
    05:00 +15°C° 0.1 mm 1 mps 758 mmHg 94%
    06:00 +15°C° 0.1 mm 1 mps 758 mmHg 94%
    07:00 +16°C° 0.1 mm 2 mps 759 mmHg 91%
    08:00 +16°C° 0.1 mm 2 mps 759 mmHg 87%
    09:00 +17°C° 0.1 mm 2 mps 759 mmHg 84%
    10:00 +18°C° 0 mm 3 mps 759 mmHg 76%
    11:00 +19°C° 0 mm 3 mps 759 mmHg 68%
    12:00 +20°C° 0 mm 3 mps 759 mmHg 61%
    13:00 +20°C° 0 mm 3 mps 759 mmHg 59%
    14:00 +20°C° 0 mm 4 mps 759 mmHg 58%
    15:00 +20°C° 0 mm 4 mps 759 mmHg 56%
    16:00 +19°C° 0 mm 4 mps 759 mmHg 60%
    17:00 +18°C° 0 mm 3 mps 759 mmHg 63%
    18:00 +17°C° 0 mm 3 mps 759 mmHg 67%
    19:00 +16°C° 0 mm 2 mps 759 mmHg 73%
    20:00 +15°C° 0 mm 2 mps 759 mmHg 79%
    21:00 +13°C° 0 mm 2 mps 759 mmHg 85%
    22:00 +13°C° 0 mm 2 mps 759 mmHg 87%
    23:00 +13°C° 0 mm 2 mps 759 mmHg 90%
    Show more